Location: Wildcat Hills Observatory
(41.6350°N, 103.6812°W)
Time: 13:08:55
(UTC-06:00)

Cosmos 1842 Rocket - Pass Details

Date: 23 June 2018
Orbit: 605 x 634 km, 82.5° (Epoch: 20 September)

Event Time Altitude Azimuth Distance (km) Brightness Sun altitude
Rises 22:07:20 0° 354° (N) 2,876 8.0 -14.0°
Reaches altitude 10° 22:09:34 10° 357° (N) 1,970 7.0 -14.3°
Maximum altitude 22:13:55 70° 81° (E) 656 3.5 -14.8°
Enters shadow 22:16:25 25° 160° (SSE) 1,258 4.6 -15.1°
